owner,sensor,date,latitude,longitude,vertical_datum,sea_water_temperature,qcFlag 
SCCF RECON,ioos:station:SCCF:51:1,2011-01-01T00:00:00Z,26.5545,-82.1715,1.8,14.08,2 
SCCF RECON,ioos:station:SCCF:51:1,2011-01-01T01:00:00Z,26.5545,-82.1715,1.8,13.81,2 
SCCF RECON,ioos:station:SCCF:51:1,2011-01-01T02:00:00Z,26.5545,-82.1715,1.8,13.87,2 
SCCF RECON,ioos:station:SCCF:51:1,2011-01-01T03:00:00Z,26.5545,-82.1715,1.8,13.83,2 
SCCF RECON,ioos:station:SCCF:51:1,2011-01-01T04:00:00Z,26.5545,-82.1715,1.8,13.98,2 
SCCF RECON,ioos:station:SCCF:51:1,2011-01-01T05:00:00Z,26.5545,-82.1715,1.8,13.97,2 
SCCF RECON,ioos:station:SCCF:51:1,2011-01-01T06:00:00Z,26.5545,-82.1715,1.8,13.9,2 
SCCF RECON,ioos:station:SCCF:51:1,2011-01-01T07:00:00Z,26.5545,-82.1715,1.8,13.75,2 
SCCF RECON,ioos:station:SCCF:51:1,2011-01-01T08:00:00Z,26.5545,-82.1715,1.8,13.66,2 
SCCF RECON,ioos:station:SCCF:51:1,2011-01-01T09:00:00Z,26.5545,-82.1715,1.8,13.68,2 
SCCF RECON,ioos:station:SCCF:51:1,2011-01-01T10:00:00Z,26.5545,-82.1715,1.8,13.8,2 
SCCF RECON,ioos:station:SCCF:51:1,2011-01-01T11:00:00Z,26.5545,-82.1715,1.8,13.81,2 
SCCF RECON,ioos:station:SCCF:51:1,2011-01-01T12:00:00Z,26.5545,-82.1715,1.8,13.73,2 
SCCF RECON,ioos:station:SCCF:51:1,2011-01-01T13:00:00Z,26.5545,-82.1715,1.8,13.68,2 
SCCF RECON,ioos:station:SCCF:51:1,2011-01-01T14:00:00Z,26.5545,-82.1715,1.8,14.09,2 
SCCF RECON,ioos:station:SCCF:51:1,2011-01-01T15:00:00Z,26.5545,-82.1715,1.8,13.83,2 
SCCF RECON,ioos:station:SCCF:51:1,2011-01-01T16:00:00Z,26.5545,-82.1715,1.8,14.35,2 
SCCF RECON,ioos:station:SCCF:51:1,2011-01-01T17:00:00Z,26.5545,-82.1715,1.8,14.38,2 
SCCF RECON,ioos:station:SCCF:51:1,2011-01-01T18:00:00Z,26.5545,-82.1715,1.8,14.59,2 
SCCF RECON,ioos:station:SCCF:51:1,2011-01-01T19:00:00Z,26.5545,-82.1715,1.8,14.62,2 
SCCF RECON,ioos:station:SCCF:51:1,2011-01-01T20:00:00Z,26.5545,-82.1715,1.8,14.93,2 
SCCF RECON,ioos:station:SCCF:51:1,2011-01-01T21:00:00Z,26.5545,-82.1715,1.8,14.99,2 
SCCF RECON,ioos:station:SCCF:51:1,2011-01-01T22:00:00Z,26.5545,-82.1715,1.8,15.08,2 
SCCF RECON,ioos:station:SCCF:51:1,2011-01-01T23:00:00Z,26.5545,-82.1715,1.8,14.9,2 
SCCF RECON,ioos:station:SCCF:51:1,2011-01-02T00:00:00Z,26.5545,-82.1715,1.8,15.01,2 
SCCF RECON,ioos:station:SCCF:51:1,2011-01-02T01:00:00Z,26.5545,-82.1715,1.8,14.76,2 
SCCF RECON,ioos:station:SCCF:51:1,2011-01-02T02:00:00Z,26.5545,-82.1715,1.8,14.57,2 
SCCF RECON,ioos:station:SCCF:51:1,2011-01-02T03:00:00Z,26.5545,-82.1715,1.8,14.56,2 
SCCF RECON,ioos:station:SCCF:51:1,2011-01-02T04:00:00Z,26.5545,-82.1715,1.8,14.64,2 
SCCF RECON,ioos:station:SCCF:51:1,2011-01-02T05:00:00Z,26.5545,-82.1715,1.8,14.9,2 
SCCF RECON,ioos:station:SCCF:51:1,2011-01-02T06:00:00Z,26.5545,-82.1715,1.8,14.96,2 
SCCF RECON,ioos:station:SCCF:51:1,2011-01-02T07:00:00Z,26.5545,-82.1715,1.8,15.0,2 
SCCF RECON,ioos:station:SCCF:51:1,2011-01-02T08:00:00Z,26.5545,-82.1715,1.8,15.02,2 
SCCF RECON,ioos:station:SCCF:51:1,2011-01-02T09:00:00Z,26.5545,-82.1715,1.8,15.09,2 
SCCF RECON,ioos:station:SCCF:51:1,2011-01-02T10:00:00Z,26.5545,-82.1715,1.8,15.24,2 
SCCF RECON,ioos:station:SCCF:51:1,2011-01-02T11:00:00Z,26.5545,-82.1715,1.8,15.33,2 
SCCF RECON,ioos:station:SCCF:51:1,2011-01-02T12:00:00Z,26.5545,-82.1715,1.8,15.39,2 
SCCF RECON,ioos:station:SCCF:51:1,2011-01-02T13:00:00Z,26.5545,-82.1715,1.8,15.36,2 
SCCF RECON,ioos:station:SCCF:51:1,2011-01-02T14:00:00Z,26.5545,-82.1715,1.8,15.08,2 
SCCF RECON,ioos:station:SCCF:51:1,2011-01-02T15:00:00Z,26.5545,-82.1715,1.8,15.27,2 
SCCF RECON,ioos:station:SCCF:51:1,2011-01-02T16:00:00Z,26.5545,-82.1715,1.8,15.24,2 
SCCF RECON,ioos:station:SCCF:51:1,2011-01-02T17:00:00Z,26.5545,-82.1715,1.8,15.35,2 
SCCF RECON,ioos:station:SCCF:51:1,2011-01-02T18:00:00Z,26.5545,-82.1715,1.8,15.56,2 
SCCF RECON,ioos:station:SCCF:51:1,2011-01-02T19:00:00Z,26.5545,-82.1715,1.8,15.79,2 
SCCF RECON,ioos:station:SCCF:51:1,2011-01-02T20:00:00Z,26.5545,-82.1715,1.8,15.96,2 
SCCF RECON,ioos:station:SCCF:51:1,2011-01-02T21:00:00Z,26.5545,-82.1715,1.8,16.01,2 
SCCF RECON,ioos:station:SCCF:51:1,2011-01-02T22:00:00Z,26.5545,-82.1715,1.8,16.01,2 
SCCF RECON,ioos:station:SCCF:51:1,2011-01-02T23:00:00Z,26.5545,-82.1715,1.8,16.23,2 
SCCF RECON,ioos:station:SCCF:51:1,2011-01-03T00:00:00Z,26.5545,-82.1715,1.8,15.92,2 
SCCF RECON,ioos:station:SCCF:51:1,2011-01-03T01:00:00Z,26.5545,-82.1715,1.8,16.0,2 
SCCF RECON,ioos:station:SCCF:51:1,2011-01-03T02:00:00Z,26.5545,-82.1715,1.8,15.44,2 
SCCF RECON,ioos:station:SCCF:51:1,2011-01-03T03:00:00Z,26.5545,-82.1715,1.8,15.25,2 
SCCF RECON,ioos:station:SCCF:51:1,2011-01-03T04:00:00Z,26.5545,-82.1715,1.8,15.52,2 
SCCF RECON,ioos:station:SCCF:51:1,2011-01-03T05:00:00Z,26.5545,-82.1715,1.8,15.38,2 
SCCF RECON,ioos:station:SCCF:51:1,2011-01-03T06:00:00Z,26.5545,-82.1715,1.8,15.83,2 
SCCF RECON,ioos:station:SCCF:51:1,2011-01-03T07:00:00Z,26.5545,-82.1715,1.8,15.92,2 
SCCF RECON,ioos:station:SCCF:51:1,2011-01-03T08:00:00Z,26.5545,-82.1715,1.8,15.99,2 
SCCF RECON,ioos:station:SCCF:51:1,2011-01-03T09:00:00Z,26.5545,-82.1715,1.8,16.05,2 
SCCF RECON,ioos:station:SCCF:51:1,2011-01-03T10:00:00Z,26.5545,-82.1715,1.8,16.2,2 
SCCF RECON,ioos:station:SCCF:51:1,2011-01-03T11:00:00Z,26.5545,-82.1715,1.8,16.35,2 
SCCF RECON,ioos:station:SCCF:51:1,2011-01-03T12:00:00Z,26.5545,-82.1715,1.8,16.5,2 
SCCF RECON,ioos:station:SCCF:51:1,2011-01-03T13:00:00Z,26.5545,-82.1715,1.8,16.58,2 
SCCF RECON,ioos:station:SCCF:51:1,2011-01-03T14:00:00Z,26.5545,-82.1715,1.8,16.47,2 
SCCF RECON,ioos:station:SCCF:51:1,2011-01-03T15:00:00Z,26.5545,-82.1715,1.8,16.21,2 
SCCF RECON,ioos:station:SCCF:51:1,2011-01-03T16:00:00Z,26.5545,-82.1715,1.8,15.94,2 
SCCF RECON,ioos:station:SCCF:51:1,2011-01-03T17:00:00Z,26.5545,-82.1715,1.8,15.75,2 
SCCF RECON,ioos:station:SCCF:51:1,2011-01-03T18:00:00Z,26.5545,-82.1715,1.8,15.9,2 
SCCF RECON,ioos:station:SCCF:51:1,2011-01-03T19:00:00Z,26.5545,-82.1715,1.8,16.01,2 
SCCF RECON,ioos:station:SCCF:51:1,2011-01-03T20:00:00Z,26.5545,-82.1715,1.8,16.55,2 
SCCF RECON,ioos:station:SCCF:51:1,2011-01-03T21:00:00Z,26.5545,-82.1715,1.8,16.55,2 
SCCF RECON,ioos:station:SCCF:51:1,2011-01-03T22:00:00Z,26.5545,-82.1715,1.8,16.64,2 
SCCF RECON,ioos:station:SCCF:51:1,2011-01-03T23:00:00Z,26.5545,-82.1715,1.8,16.34,2 
SCCF RECON,ioos:station:SCCF:51:1,2011-01-04T00:00:00Z,26.5545,-82.1715,1.8,16.35,2 
SCCF RECON,ioos:station:SCCF:51:1,2011-01-04T01:00:00Z,26.5545,-82.1715,1.8,16.32,2 
SCCF RECON,ioos:station:SCCF:51:1,2011-01-04T02:00:00Z,26.5545,-82.1715,1.8,16.36,2 
SCCF RECON,ioos:station:SCCF:51:1,2011-01-04T03:00:00Z,26.5545,-82.1715,1.8,15.82,2 
SCCF RECON,ioos:station:SCCF:51:1,2011-01-04T04:00:00Z,26.5545,-82.1715,1.8,15.49,2 
SCCF RECON,ioos:station:SCCF:51:1,2011-01-04T05:00:00Z,26.5545,-82.1715,1.8,15.48,2 
SCCF RECON,ioos:station:SCCF:51:1,2011-01-04T06:00:00Z,26.5545,-82.1715,1.8,15.6,2 
SCCF RECON,ioos:station:SCCF:51:1,2011-01-04T07:00:00Z,26.5545,-82.1715,1.8,16.0,2 
SCCF RECON,ioos:station:SCCF:51:1,2011-01-04T08:00:00Z,26.5545,-82.1715,1.8,16.27,2 
SCCF RECON,ioos:station:SCCF:51:1,2011-01-04T09:00:00Z,26.5545,-82.1715,1.8,16.54,2 
SCCF RECON,ioos:station:SCCF:51:1,2011-01-04T10:00:00Z,26.5545,-82.1715,1.8,16.68,2 
SCCF RECON,ioos:station:SCCF:51:1,2011-01-04T11:00:00Z,26.5545,-82.1715,1.8,16.82,2 
SCCF RECON,ioos:station:SCCF:51:1,2011-01-04T12:00:00Z,26.5545,-82.1715,1.8,16.89,2 
SCCF RECON,ioos:station:SCCF:51:1,2011-01-04T13:00:00Z,26.5545,-82.1715,1.8,16.98,2 
SCCF RECON,ioos:station:SCCF:51:1,2011-01-04T14:00:00Z,26.5545,-82.1715,1.8,16.79,2 
SCCF RECON,ioos:station:SCCF:51:1,2011-01-04T15:00:00Z,26.5545,-82.1715,1.8,16.55,2 
SCCF RECON,ioos:station:SCCF:51:1,2011-01-04T16:00:00Z,26.5545,-82.1715,1.8,16.54,2 
SCCF RECON,ioos:station:SCCF:51:1,2011-01-04T17:00:00Z,26.5545,-82.1715,1.8,15.84,2 
SCCF RECON,ioos:station:SCCF:51:1,2011-01-04T18:00:00Z,26.5545,-82.1715,1.8,15.9,2 
SCCF RECON,ioos:station:SCCF:51:1,2011-01-04T19:00:00Z,26.5545,-82.1715,1.8,16.18,2 
SCCF RECON,ioos:station:SCCF:51:1,2011-01-04T20:00:00Z,26.5545,-82.1715,1.8,16.51,2 
SCCF RECON,ioos:station:SCCF:51:1,2011-01-04T21:00:00Z,26.5545,-82.1715,1.8,16.77,2 
SCCF RECON,ioos:station:SCCF:51:1,2011-01-04T22:00:00Z,26.5545,-82.1715,1.8,17.03,2 
SCCF RECON,ioos:station:SCCF:51:1,2011-01-04T23:00:00Z,26.5545,-82.1715,1.8,17.15,2 
SCCF RECON,ioos:station:SCCF:51:1,2011-01-05T00:00:00Z,26.5545,-82.1715,1.8,17.27,2 
SCCF RECON,ioos:station:SCCF:51:1,2011-01-05T01:00:00Z,26.5545,-82.1715,1.8,16.93,2 
SCCF RECON,ioos:station:SCCF:51:1,2011-01-05T02:00:00Z,26.5545,-82.1715,1.8,16.46,2 
SCCF RECON,ioos:station:SCCF:51:1,2011-01-05T03:00:00Z,26.5545,-82.1715,1.8,16.21,2 
SCCF RECON,ioos:station:SCCF:51:1,2011-01-05T04:00:00Z,26.5545,-82.1715,1.8,16.08,2 
SCCF RECON,ioos:station:SCCF:51:1,2011-01-05T05:00:00Z,26.5545,-82.1715,1.8,15.92,2 
SCCF RECON,ioos:station:SCCF:51:1,2011-01-05T06:00:00Z,26.5545,-82.1715,1.8,15.93,2 
SCCF RECON,ioos:station:SCCF:51:1,2011-01-05T07:00:00Z,26.5545,-82.1715,1.8,16.14,2 
SCCF RECON,ioos:station:SCCF:51:1,2011-01-05T08:00:00Z,26.5545,-82.1715,1.8,16.43,2 
SCCF RECON,ioos:station:SCCF:51:1,2011-01-05T09:00:00Z,26.5545,-82.1715,1.8,16.73,2 
SCCF RECON,ioos:station:SCCF:51:1,2011-01-05T10:00:00Z,26.5545,-82.1715,1.8,17.01,2 
SCCF RECON,ioos:station:SCCF:51:1,2011-01-05T11:00:00Z,26.5545,-82.1715,1.8,17.46,2 
SCCF RECON,ioos:station:SCCF:51:1,2011-01-05T12:00:00Z,26.5545,-82.1715,1.8,17.61,2 
SCCF RECON,ioos:station:SCCF:51:1,2011-01-05T13:00:00Z,26.5545,-82.1715,1.8,17.73,2 
SCCF RECON,ioos:station:SCCF:51:1,2011-01-05T14:00:00Z,26.5545,-82.1715,1.8,17.56,2 
SCCF RECON,ioos:station:SCCF:51:1,2011-01-05T15:00:00Z,26.5545,-82.1715,1.8,17.31,2 
SCCF RECON,ioos:station:SCCF:51:1,2011-01-05T16:00:00Z,26.5545,-82.1715,1.8,17.37,2 
SCCF RECON,ioos:station:SCCF:51:1,2011-01-05T17:00:00Z,26.5545,-82.1715,1.8,16.42,2 
SCCF RECON,ioos:station:SCCF:51:1,2011-01-05T18:00:00Z,26.5545,-82.1715,1.8,17.12,2 
SCCF RECON,ioos:station:SCCF:51:1,2011-01-05T19:00:00Z,26.5545,-82.1715,1.8,16.99,2 
SCCF RECON,ioos:station:SCCF:51:1,2011-01-05T20:00:00Z,26.5545,-82.1715,1.8,17.17,2 
SCCF RECON,ioos:station:SCCF:51:1,2011-01-05T21:00:00Z,26.5545,-82.1715,1.8,17.67,2 
SCCF RECON,ioos:station:SCCF:51:1,2011-01-05T22:00:00Z,26.5545,-82.1715,1.8,17.91,2 
SCCF RECON,ioos:station:SCCF:51:1,2011-01-05T23:00:00Z,26.5545,-82.1715,1.8,18.16,2 
SCCF RECON,ioos:station:SCCF:51:1,2011-01-06T00:00:00Z,26.5545,-82.1715,1.8,18.16,2 
SCCF RECON,ioos:station:SCCF:51:1,2011-01-06T01:00:00Z,26.5545,-82.1715,1.8,17.99,2 
SCCF RECON,ioos:station:SCCF:51:1,2011-01-06T02:00:00Z,26.5545,-82.1715,1.8,16.67,2 
SCCF RECON,ioos:station:SCCF:51:1,2011-01-06T03:00:00Z,26.5545,-82.1715,1.8,16.62,2 
SCCF RECON,ioos:station:SCCF:51:1,2011-01-06T04:00:00Z,26.5545,-82.1715,1.8,16.35,2 
SCCF RECON,ioos:station:SCCF:51:1,2011-01-06T05:00:00Z,26.5545,-82.1715,1.8,16.24,2 
SCCF RECON,ioos:station:SCCF:51:1,2011-01-06T06:00:00Z,26.5545,-82.1715,1.8,16.54,2 
SCCF RECON,ioos:station:SCCF:51:1,2011-01-06T07:00:00Z,26.5545,-82.1715,1.8,16.58,2 
SCCF RECON,ioos:station:SCCF:51:1,2011-01-06T08:00:00Z,26.5545,-82.1715,1.8,16.67,2 
SCCF RECON,ioos:station:SCCF:51:1,2011-01-06T09:00:00Z,26.5545,-82.1715,1.8,17.03,2 
SCCF RECON,ioos:station:SCCF:51:1,2011-01-06T10:00:00Z,26.5545,-82.1715,1.8,17.76,2 
SCCF RECON,ioos:station:SCCF:51:1,2011-01-06T11:00:00Z,26.5545,-82.1715,1.8,18.21,2 
SCCF RECON,ioos:station:SCCF:51:1,2011-01-06T12:00:00Z,26.5545,-82.1715,1.8,18.34,2 
SCCF RECON,ioos:station:SCCF:51:1,2011-01-06T13:00:00Z,26.5545,-82.1715,1.8,18.42,2 
SCCF RECON,ioos:station:SCCF:51:1,2011-01-06T14:00:00Z,26.5545,-82.1715,1.8,18.53,2 
SCCF RECON,ioos:station:SCCF:51:1,2011-01-06T15:00:00Z,26.5545,-82.1715,1.8,18.55,2 
SCCF RECON,ioos:station:SCCF:51:1,2011-01-06T16:00:00Z,26.5545,-82.1715,1.8,18.28,2 
SCCF RECON,ioos:station:SCCF:51:1,2011-01-06T17:00:00Z,26.5545,-82.1715,1.8,17.4,2 
SCCF RECON,ioos:station:SCCF:51:1,2011-01-06T18:00:00Z,26.5545,-82.1715,1.8,17.41,2 
SCCF RECON,ioos:station:SCCF:51:1,2011-01-06T19:00:00Z,26.5545,-82.1715,1.8,16.86,2 
SCCF RECON,ioos:station:SCCF:51:1,2011-01-06T20:00:00Z,26.5545,-82.1715,1.8,16.75,2 
SCCF RECON,ioos:station:SCCF:51:1,2011-01-06T21:00:00Z,26.5545,-82.1715,1.8,17.25,2 
SCCF RECON,ioos:station:SCCF:51:1,2011-01-06T22:00:00Z,26.5545,-82.1715,1.8,17.43,2 
SCCF RECON,ioos:station:SCCF:51:1,2011-01-06T23:00:00Z,26.5545,-82.1715,1.8,17.62,2 
SCCF RECON,ioos:station:SCCF:51:1,2011-01-07T00:00:00Z,26.5545,-82.1715,1.8,17.86,2 
SCCF RECON,ioos:station:SCCF:51:1,2011-01-07T01:00:00Z,26.5545,-82.1715,1.8,17.77,2 
SCCF RECON,ioos:station:SCCF:51:1,2011-01-07T02:00:00Z,26.5545,-82.1715,1.8,17.47,2 
SCCF RECON,ioos:station:SCCF:51:1,2011-01-07T03:00:00Z,26.5545,-82.1715,1.8,17.27,2 
SCCF RECON,ioos:station:SCCF:51:1,2011-01-07T04:00:00Z,26.5545,-82.1715,1.8,16.7,2 
SCCF RECON,ioos:station:SCCF:51:1,2011-01-07T05:00:00Z,26.5545,-82.1715,1.8,16.34,2 
SCCF RECON,ioos:station:SCCF:51:1,2011-01-07T06:00:00Z,26.5545,-82.1715,1.8,16.42,2 
SCCF RECON,ioos:station:SCCF:51:1,2011-01-07T07:00:00Z,26.5545,-82.1715,1.8,16.29,2 
SCCF RECON,ioos:station:SCCF:51:1,2011-01-07T08:00:00Z,26.5545,-82.1715,1.8,16.23,2 
SCCF RECON,ioos:station:SCCF:51:1,2011-01-07T09:00:00Z,26.5545,-82.1715,1.8,16.2,2 
SCCF RECON,ioos:station:SCCF:51:1,2011-01-07T10:00:00Z,26.5545,-82.1715,1.8,16.31,2 
SCCF RECON,ioos:station:SCCF:51:1,2011-01-07T11:00:00Z,26.5545,-82.1715,1.8,16.24,2 
SCCF RECON,ioos:station:SCCF:51:1,2011-01-07T12:00:00Z,26.5545,-82.1715,1.8,16.3,2 
SCCF RECON,ioos:station:SCCF:51:1,2011-01-07T13:00:00Z,26.5545,-82.1715,1.8,16.33,2 
SCCF RECON,ioos:station:SCCF:51:1,2011-01-07T14:00:00Z,26.5545,-82.1715,1.8,16.39,2 
SCCF RECON,ioos:station:SCCF:51:1,2011-01-07T15:00:00Z,26.5545,-82.1715,1.8,16.45,2 
SCCF RECON,ioos:station:SCCF:51:1,2011-01-07T16:00:00Z,26.5545,-82.1715,1.8,16.47,2 
SCCF RECON,ioos:station:SCCF:51:1,2011-01-07T17:00:00Z,26.5545,-82.1715,1.8,16.54,2 
SCCF RECON,ioos:station:SCCF:51:1,2011-01-07T18:00:00Z,26.5545,-82.1715,1.8,16.41,2 
SCCF RECON,ioos:station:SCCF:51:1,2011-01-07T19:00:00Z,26.5545,-82.1715,1.8,16.66,2 
SCCF RECON,ioos:station:SCCF:51:1,2011-01-07T20:00:00Z,26.5545,-82.1715,1.8,16.74,2 
SCCF RECON,ioos:station:SCCF:51:1,2011-01-07T21:00:00Z,26.5545,-82.1715,1.8,16.75,2 
SCCF RECON,ioos:station:SCCF:51:1,2011-01-07T22:00:00Z,26.5545,-82.1715,1.8,16.95,2 
SCCF RECON,ioos:station:SCCF:51:1,2011-01-07T23:00:00Z,26.5545,-82.1715,1.8,16.9,2 
SCCF RECON,ioos:station:SCCF:51:1,2011-01-08T00:00:00Z,26.5545,-82.1715,1.8,17.22,2 
SCCF RECON,ioos:station:SCCF:51:1,2011-01-08T01:00:00Z,26.5545,-82.1715,1.8,17.26,2 
SCCF RECON,ioos:station:SCCF:51:1,2011-01-08T02:00:00Z,26.5545,-82.1715,1.8,17.27,2 
SCCF RECON,ioos:station:SCCF:51:1,2011-01-08T03:00:00Z,26.5545,-82.1715,1.8,16.67,2 
SCCF RECON,ioos:station:SCCF:51:1,2011-01-08T04:00:00Z,26.5545,-82.1715,1.8,16.33,2 
SCCF RECON,ioos:station:SCCF:51:1,2011-01-08T05:00:00Z,26.5545,-82.1715,1.8,16.3,2 
SCCF RECON,ioos:station:SCCF:51:1,2011-01-08T06:00:00Z,26.5545,-82.1715,1.8,16.14,2 
SCCF RECON,ioos:station:SCCF:51:1,2011-01-08T07:00:00Z,26.5545,-82.1715,1.8,16.08,2 
SCCF RECON,ioos:station:SCCF:51:1,2011-01-08T08:00:00Z,26.5545,-82.1715,1.8,16.04,2 
SCCF RECON,ioos:station:SCCF:51:1,2011-01-08T09:00:00Z,26.5545,-82.1715,1.8,16.1,2 
SCCF RECON,ioos:station:SCCF:51:1,2011-01-08T10:00:00Z,26.5545,-82.1715,1.8,16.18,2 
SCCF RECON,ioos:station:SCCF:51:1,2011-01-08T11:00:00Z,26.5545,-82.1715,1.8,16.54,2 
SCCF RECON,ioos:station:SCCF:51:1,2011-01-08T12:00:00Z,26.5545,-82.1715,1.8,16.73,2 
SCCF RECON,ioos:station:SCCF:51:1,2011-01-08T13:00:00Z,26.5545,-82.1715,1.8,16.79,2 
SCCF RECON,ioos:station:SCCF:51:1,2011-01-08T14:00:00Z,26.5545,-82.1715,1.8,16.89,2 
SCCF RECON,ioos:station:SCCF:51:1,2011-01-08T15:00:00Z,26.5545,-82.1715,1.8,16.96,2 
SCCF RECON,ioos:station:SCCF:51:1,2011-01-08T16:00:00Z,26.5545,-82.1715,1.8,16.98,2 
SCCF RECON,ioos:station:SCCF:51:1,2011-01-08T17:00:00Z,26.5545,-82.1715,1.8,17.0,2 
SCCF RECON,ioos:station:SCCF:51:1,2011-01-08T18:00:00Z,26.5545,-82.1715,1.8,16.92,2 
SCCF RECON,ioos:station:SCCF:51:1,2011-01-08T19:00:00Z,26.5545,-82.1715,1.8,16.73,2 
SCCF RECON,ioos:station:SCCF:51:1,2011-01-08T20:00:00Z,26.5545,-82.1715,1.8,16.93,2 
SCCF RECON,ioos:station:SCCF:51:1,2011-01-08T21:00:00Z,26.5545,-82.1715,1.8,17.3,2 
SCCF RECON,ioos:station:SCCF:51:1,2011-01-08T22:00:00Z,26.5545,-82.1715,1.8,17.42,2 
SCCF RECON,ioos:station:SCCF:51:1,2011-01-08T23:00:00Z,26.5545,-82.1715,1.8,17.56,2 
SCCF RECON,ioos:station:SCCF:51:1,2011-01-09T00:00:00Z,26.5545,-82.1715,1.8,17.58,2 
SCCF RECON,ioos:station:SCCF:51:1,2011-01-09T01:00:00Z,26.5545,-82.1715,1.8,17.67,2 
SCCF RECON,ioos:station:SCCF:51:1,2011-01-09T02:00:00Z,26.5545,-82.1715,1.8,17.66,2 
SCCF RECON,ioos:station:SCCF:51:1,2011-01-09T03:00:00Z,26.5545,-82.1715,1.8,17.57,2 
SCCF RECON,ioos:station:SCCF:51:1,2011-01-09T04:00:00Z,26.5545,-82.1715,1.8,17.38,2 
SCCF RECON,ioos:station:SCCF:51:1,2011-01-09T05:00:00Z,26.5545,-82.1715,1.8,17.16,2 
SCCF RECON,ioos:station:SCCF:51:1,2011-01-09T06:00:00Z,26.5545,-82.1715,1.8,16.83,2 
SCCF RECON,ioos:station:SCCF:51:1,2011-01-09T07:00:00Z,26.5545,-82.1715,1.8,16.59,2 
SCCF RECON,ioos:station:SCCF:51:1,2011-01-09T08:00:00Z,26.5545,-82.1715,1.8,16.58,2 
SCCF RECON,ioos:station:SCCF:51:1,2011-01-09T09:00:00Z,26.5545,-82.1715,1.8,16.52,2 
SCCF RECON,ioos:station:SCCF:51:1,2011-01-09T10:00:00Z,26.5545,-82.1715,1.8,16.74,2 
SCCF RECON,ioos:station:SCCF:51:1,2011-01-09T11:00:00Z,26.5545,-82.1715,1.8,16.84,2 
SCCF RECON,ioos:station:SCCF:51:1,2011-01-09T12:00:00Z,26.5545,-82.1715,1.8,16.91,2 
SCCF RECON,ioos:station:SCCF:51:1,2011-01-09T13:00:00Z,26.5545,-82.1715,1.8,16.9,2 
SCCF RECON,ioos:station:SCCF:51:1,2011-01-09T14:00:00Z,26.5545,-82.1715,1.8,16.9,2 
SCCF RECON,ioos:station:SCCF:51:1,2011-01-09T15:00:00Z,26.5545,-82.1715,1.8,16.9,2 
SCCF RECON,ioos:station:SCCF:51:1,2011-01-09T16:00:00Z,26.5545,-82.1715,1.8,16.95,2 
SCCF RECON,ioos:station:SCCF:51:1,2011-01-09T17:00:00Z,26.5545,-82.1715,1.8,16.94,2 
SCCF RECON,ioos:station:SCCF:51:1,2011-01-09T18:00:00Z,26.5545,-82.1715,1.8,16.91,2 
SCCF RECON,ioos:station:SCCF:51:1,2011-01-09T19:00:00Z,26.5545,-82.1715,1.8,16.72,2 
SCCF RECON,ioos:station:SCCF:51:1,2011-01-09T20:00:00Z,26.5545,-82.1715,1.8,17.03,2 
SCCF RECON,ioos:station:SCCF:51:1,2011-01-09T21:00:00Z,26.5545,-82.1715,1.8,17.03,2 
SCCF RECON,ioos:station:SCCF:51:1,2011-01-09T22:00:00Z,26.5545,-82.1715,1.8,17.12,2 
SCCF RECON,ioos:station:SCCF:51:1,2011-01-09T23:00:00Z,26.5545,-82.1715,1.8,17.17,2 
SCCF RECON,ioos:station:SCCF:51:1,2011-01-10T00:00:00Z,26.5545,-82.1715,1.8,17.4,2 
SCCF RECON,ioos:station:SCCF:51:1,2011-01-10T01:00:00Z,26.5545,-82.1715,1.8,17.42,2 
SCCF RECON,ioos:station:SCCF:51:1,2011-01-10T02:00:00Z,26.5545,-82.1715,1.8,17.45,2 
SCCF RECON,ioos:station:SCCF:51:1,2011-01-10T03:00:00Z,26.5545,-82.1715,1.8,17.43,2 
SCCF RECON,ioos:station:SCCF:51:1,2011-01-10T04:00:00Z,26.5545,-82.1715,1.8,17.38,2 
SCCF RECON,ioos:station:SCCF:51:1,2011-01-10T05:00:00Z,26.5545,-82.1715,1.8,17.28,2 
SCCF RECON,ioos:station:SCCF:51:1,2011-01-10T06:00:00Z,26.5545,-82.1715,1.8,17.16,2 
SCCF RECON,ioos:station:SCCF:51:1,2011-01-10T07:00:00Z,26.5545,-82.1715,1.8,17.13,2 
SCCF RECON,ioos:station:SCCF:51:1,2011-01-10T08:00:00Z,26.5545,-82.1715,1.8,17.03,2 
SCCF RECON,ioos:station:SCCF:51:1,2011-01-10T09:00:00Z,26.5545,-82.1715,1.8,16.98,2 
SCCF RECON,ioos:station:SCCF:51:1,2011-01-10T10:00:00Z,26.5545,-82.1715,1.8,16.93,2 
SCCF RECON,ioos:station:SCCF:51:1,2011-01-10T11:00:00Z,26.5545,-82.1715,1.8,17.04,2 
SCCF RECON,ioos:station:SCCF:51:1,2011-01-10T12:00:00Z,26.5545,-82.1715,1.8,17.04,2 
SCCF RECON,ioos:station:SCCF:51:1,2011-01-10T13:00:00Z,26.5545,-82.1715,1.8,17.08,2 
SCCF RECON,ioos:station:SCCF:51:1,2011-01-10T14:00:00Z,26.5545,-82.1715,1.8,17.18,2 
SCCF RECON,ioos:station:SCCF:51:1,2011-01-10T15:00:00Z,26.5545,-82.1715,1.8,17.4,2 
SCCF RECON,ioos:station:SCCF:51:1,2011-01-10T16:00:00Z,26.5545,-82.1715,1.8,17.33,2 
SCCF RECON,ioos:station:SCCF:51:1,2011-01-10T18:00:00Z,26.5545,-82.1715,1.8,17.53,2 
SCCF RECON,ioos:station:SCCF:51:1,2011-01-10T19:00:00Z,26.5545,-82.1715,1.8,17.7,2 
SCCF RECON,ioos:station:SCCF:51:1,2011-01-10T20:00:00Z,26.5545,-82.1715,1.8,17.8,2 
SCCF RECON,ioos:station:SCCF:51:1,2011-01-10T21:00:00Z,26.5545,-82.1715,1.8,17.51,2 
SCCF RECON,ioos:station:SCCF:51:1,2011-01-10T22:00:00Z,26.5545,-82.1715,1.8,17.58,2 
SCCF RECON,ioos:station:SCCF:51:1,2011-01-10T23:00:00Z,26.5545,-82.1715,1.8,17.68,2 
SCCF RECON,ioos:station:SCCF:51:1,2011-01-11T00:00:00Z,26.5545,-82.1715,1.8,17.9,2 
SCCF RECON,ioos:station:SCCF:51:1,2011-01-11T01:00:00Z,26.5545,-82.1715,1.8,17.93,2 
SCCF RECON,ioos:station:SCCF:51:1,2011-01-11T02:00:00Z,26.5545,-82.1715,1.8,17.98,2 
SCCF RECON,ioos:station:SCCF:51:1,2011-01-11T03:00:00Z,26.5545,-82.1715,1.8,17.92,2 
SCCF RECON,ioos:station:SCCF:51:1,2011-01-11T04:00:00Z,26.5545,-82.1715,1.8,17.85,2 
SCCF RECON,ioos:station:SCCF:51:1,2011-01-11T05:00:00Z,26.5545,-82.1715,1.8,17.83,2 
SCCF RECON,ioos:station:SCCF:51:1,2011-01-11T06:00:00Z,26.5545,-82.1715,1.8,17.82,2 
SCCF RECON,ioos:station:SCCF:51:1,2011-01-11T07:00:00Z,26.5545,-82.1715,1.8,17.91,2 
SCCF RECON,ioos:station:SCCF:51:1,2011-01-11T08:00:00Z,26.5545,-82.1715,1.8,17.84,2 
SCCF RECON,ioos:station:SCCF:51:1,2011-01-11T09:00:00Z,26.5545,-82.1715,1.8,17.86,2 
SCCF RECON,ioos:station:SCCF:51:1,2011-01-11T10:00:00Z,26.5545,-82.1715,1.8,17.93,2 
SCCF RECON,ioos:station:SCCF:51:1,2011-01-11T11:00:00Z,26.5545,-82.1715,1.8,17.93,2 
SCCF RECON,ioos:station:SCCF:51:1,2011-01-11T12:00:00Z,26.5545,-82.1715,1.8,17.85,2 
SCCF RECON,ioos:station:SCCF:51:1,2011-01-11T13:00:00Z,26.5545,-82.1715,1.8,17.91,2 
SCCF RECON,ioos:station:SCCF:51:1,2011-01-11T14:00:00Z,26.5545,-82.1715,1.8,17.89,2 
SCCF RECON,ioos:station:SCCF:51:1,2011-01-11T15:00:00Z,26.5545,-82.1715,1.8,18.16,2 
SCCF RECON,ioos:station:SCCF:51:1,2011-01-11T16:00:00Z,26.5545,-82.1715,1.8,18.18,2 
SCCF RECON,ioos:station:SCCF:51:1,2011-01-11T17:00:00Z,26.5545,-82.1715,1.8,18.09,2 
SCCF RECON,ioos:station:SCCF:51:1,2011-01-11T18:00:00Z,26.5545,-82.1715,1.8,18.33,2 
SCCF RECON,ioos:station:SCCF:51:1,2011-01-11T19:00:00Z,26.5545,-82.1715,1.8,18.28,2 
SCCF RECON,ioos:station:SCCF:51:1,2011-01-11T20:00:00Z,26.5545,-82.1715,1.8,17.79,2 
SCCF RECON,ioos:station:SCCF:51:1,2011-01-11T21:00:00Z,26.5545,-82.1715,1.8,18.23,2 
SCCF RECON,ioos:station:SCCF:51:1,2011-01-11T22:00:00Z,26.5545,-82.1715,1.8,17.59,2 
SCCF RECON,ioos:station:SCCF:51:1,2011-01-11T23:00:00Z,26.5545,-82.1715,1.8,17.53,2 
SCCF RECON,ioos:station:SCCF:51:1,2011-01-12T00:00:00Z,26.5545,-82.1715,1.8,17.64,2 
SCCF RECON,ioos:station:SCCF:51:1,2011-01-12T01:00:00Z,26.5545,-82.1715,1.8,17.96,2 
SCCF RECON,ioos:station:SCCF:51:1,2011-01-12T02:00:00Z,26.5545,-82.1715,1.8,18.11,2 
SCCF RECON,ioos:station:SCCF:51:1,2011-01-12T03:00:00Z,26.5545,-82.1715,1.8,18.06,2 
SCCF RECON,ioos:station:SCCF:51:1,2011-01-12T04:00:00Z,26.5545,-82.1715,1.8,18.01,2 
SCCF RECON,ioos:station:SCCF:51:1,2011-01-12T05:00:00Z,26.5545,-82.1715,1.8,17.95,2 
SCCF RECON,ioos:station:SCCF:51:1,2011-01-12T06:00:00Z,26.5545,-82.1715,1.8,17.85,2 
SCCF RECON,ioos:station:SCCF:51:1,2011-01-12T07:00:00Z,26.5545,-82.1715,1.8,17.72,2 
SCCF RECON,ioos:station:SCCF:51:1,2011-01-12T08:00:00Z,26.5545,-82.1715,1.8,17.57,2 
SCCF RECON,ioos:station:SCCF:51:1,2011-01-12T09:00:00Z,26.5545,-82.1715,1.8,17.39,2 
SCCF RECON,ioos:station:SCCF:51:1,2011-01-12T10:00:00Z,26.5545,-82.1715,1.8,17.03,2 
SCCF RECON,ioos:station:SCCF:51:1,2011-01-12T11:00:00Z,26.5545,-82.1715,1.8,16.74,2 
SCCF RECON,ioos:station:SCCF:51:1,2011-01-12T12:00:00Z,26.5545,-82.1715,1.8,16.6,2 
SCCF RECON,ioos:station:SCCF:51:1,2011-01-12T13:00:00Z,26.5545,-82.1715,1.8,16.44,2 
SCCF RECON,ioos:station:SCCF:51:1,2011-01-12T14:00:00Z,26.5545,-82.1715,1.8,16.32,2 
SCCF RECON,ioos:station:SCCF:51:1,2011-01-12T15:00:00Z,26.5545,-82.1715,1.8,16.25,2 
SCCF RECON,ioos:station:SCCF:51:1,2011-01-12T16:00:00Z,26.5545,-82.1715,1.8,16.26,2 
SCCF RECON,ioos:station:SCCF:51:1,2011-01-12T17:00:00Z,26.5545,-82.1715,1.8,16.29,2 